CW3109 Weather Reports


time (UTC)temp
C
wind
direction
speed
KPH
gust
KPH
rain 1hr
cm
rain 24hr
cm
rain mn
cm
humidity
%
barometer
mb
20260503175405 16 279 6.4 12.9 0.00 0.00 0.00 69 1011.4
20260503174904 15 172 3.2 8.0 0.00 0.00 0.00 70 1011.4
20260503174403 15 243 6.4 9.7 0.00 0.00 0.00 70 1011.4
20260503173904 15 255 3.2 11.3 0.00 0.00 0.00 71 1011.3
20260503173404 15 196 4.8 9.7 0.00 0.00 0.00 71 1011.3
20260503172904 15 241 4.8 9.7 0.00 0.00 0.00 72 1011.3
20260503172404 15 216 4.8 11.3 0.00 0.00 0.00 73 1011.2
20260503171904 15 251 8.0 19.3 0.00 0.00 0.00 73 1011.2
20260503171404 15 227 4.8 19.3 0.00 0.00 0.00 74 1011.2
20260503170904 15 261 8.0 11.3 0.00 0.00 0.00 75 1011.4
20260503170404 15 247 8.0 16.1 0.00 0.00 0.00 76 1011.4
20260503150904 13 180 3.2 4.8 0.00 0.00 0.00 75 1010.7
20260503150403 13 180 1.6 4.8 0.00 0.00 0.00 75 1010.7
20260503131404 13 213 3.2 8.0 0.00 0.00 0.00 75 1009.5
20260503130904 13 215 4.8 8.0 0.00 0.00 0.00 75 1009.4
20260503130404 13 215 1.6 4.8 0.00 0.00 0.00 75 1009.4
20260503090404 13 249 6.4 14.5 0.00 0.00 0.00 75 1009.8
20260503081404 13 258 8.0 14.5 0.00 0.00 0.00 75 1010.2
20260503080903 13 257 8.0 12.9 0.00 0.00 0.00 75 1010.3
20260503080404 13 242 6.4 12.9 0.00 0.00 0.00 75 1010.3
20260503072403 13 259 4.8 11.3 0.00 0.00 0.00 75 1010.3
20260503071903 13 276 8.0 14.5 0.00 0.00 0.00 74 1010.3
20260503071403 13 267 8.0 19.3 0.00 0.00 0.00 74 1010.3
20260503070903 13 263 6.4 11.3 0.00 0.00 0.00 74 1010.4
20260503070403 13 261 8.0 12.9 0.00 0.00 0.00 74 1010.4
20260503054904 13 260 4.8 9.7 0.00 0.00 0.00 73 1010.8
20260503053904 13 266 9.7 16.1 0.00 0.00 0.00 74 1010.8
20260503053404 13 267 4.8 11.3 0.00 0.00 0.00 74 1010.8
20260503052903 13 272 9.7 16.1 0.00 0.00 0.00 74 1010.8
20260503052404 13 270 8.0 16.1 0.00 0.00 0.00 74 1010.9
20260503051904 13 278 8.0 19.3 0.00 0.00 0.00 76 1010.9
20260503051404 13 273 8.0 14.5 0.00 0.00 0.00 74 1010.9
20260503050904 13 265 8.0 19.3 0.00 0.00 0.00 74 1010.8
20260503050404 13 264 6.4 11.3 0.00 0.00 0.00 74 1010.8
20260503045904 13 288 8.0 16.1 0.00 0.00 0.00 74 1010.8
20260503044904 13 280 8.0 14.5 0.00 0.00 0.00 74 1010.7
20260503043904 13 271 9.7 14.5 0.00 0.00 0.00 74 1010.6
20260503043404 13 274 11.3 22.5 0.00 0.00 0.00 74 1010.6
20260503042904 13 269 11.3 20.9 0.00 0.00 0.00 74 1010.6
20260503042404 13 270 9.7 19.3 0.00 0.00 0.00 75 1010.5
20260503041904 13 271 11.3 20.9 0.00 0.00 0.00 75 1010.5
20260503041404 13 276 8.0 16.1 0.00 0.00 0.00 75 1010.5
20260503040904 13 279 8.0 16.1 0.00 0.00 0.00 75 1010.3
20260503040404 13 258 9.7 19.3 0.00 0.00 0.00 75 1010.3
20260503035404 13 257 11.3 19.3 0.00 0.00 0.00 74 1010.2
20260503034905 13 266 14.5 22.5 0.00 0.00 0.00 74 1010.2
20260503034404 13 270 11.3 22.5 0.00 0.00 0.00 74 1010.2
20260503033904 13 268 11.3 19.3 0.00 0.00 0.00 74 1010.2
20260503033404 13 271 8.0 19.3 0.00 0.00 0.00 74 1010.2
20260503032404 13 257 9.7 19.3 0.00 0.00 0.00 74 1010.1
20260503031904 13 264 9.7 19.3 0.00 0.00 0.00 74 1010.1
20260503031404 14 271 11.3 20.9 0.00 0.00 0.00 74 1010.1
20260503030904 13 268 9.7 24.1 0.00 0.00 0.00 74 1009.9
20260503030403 14 265 9.7 19.3 0.00 0.00 0.00 74 1009.9
20260503025904 14 277 8.0 16.1 0.00 0.00 0.00 73 1009.9
20260503025404 14 273 4.8 9.7 0.00 0.00 0.00 73 1009.8
20260503024904 14 279 8.0 20.9 0.00 0.00 0.00 73 1009.8
20260503024404 14 274 8.0 20.9 0.00 0.00 0.00 73 1009.8
20260503023904 14 283 6.4 19.3 0.00 0.00 0.00 73 1009.7
20260503023404 14 272 11.3 20.9 0.00 0.00 0.00 72 1009.7
20260503022904 14 284 6.4 19.3 0.00 0.00 0.00 73 1009.7
20260503022404 14 265 8.0 19.3 0.00 0.00 0.00 73 1009.8
20260503021904 14 266 14.5 32.2 0.00 0.00 0.00 72 1009.8
20260503021403 14 261 8.0 25.7 0.00 0.00 0.00 72 1009.8
20260503020904 14 281 11.3 25.7 0.00 0.00 0.00 72 1009.8
20260503020403 14 278 9.7 25.7 0.00 0.00 0.00 71 1009.8
20260503015403 15 268 12.9 20.9 0.00 0.00 0.00 71 1010.0
20260503014403 15 272 12.9 22.5 0.00 0.00 0.00 71 1010.0
20260503013904 15 274 8.0 20.9 0.00 0.00 0.00 71 1009.9
20260503013403 15 267 9.7 24.1 0.00 0.00 0.00 71 1009.9
20260503012403 15 286 8.0 19.3 0.00 0.00 0.00 71 1009.9
20260503011904 15 277 11.3 20.9 0.00 0.00 0.00 70 1009.9
20260503011403 15 283 11.3 24.1 0.00 0.00 0.00 71 1009.9
20260503010904 15 262 17.7 29.0 0.00 0.00 0.00 70 1009.9
20260503010404 15 269 11.3 25.7 0.00 0.00 0.00 70 1009.9
20260503005903 15 262 16.1 25.7 0.00 0.00 0.00 69 1009.9
20260503005403 15 280 12.9 20.9 0.00 0.00 0.00 68 1010.0
20260503004903 16 266 8.0 20.9 0.00 0.00 0.00 69 1010.0
20260503004404 16 291 9.7 24.1 0.00 0.00 0.00 69 1010.0
20260503003903 15 280 14.5 22.5 0.00 0.00 0.00 69 1010.0
20260503003404 15 306 9.7 22.5 0.00 0.00 0.00 69 1010.0
20260503002904 15 268 8.0 19.3 0.00 0.00 0.00 69 1010.0
20260503002403 15 258 11.3 22.5 0.00 0.00 0.00 69 1010.1
20260503001904 15 274 11.3 24.1 0.00 0.00 0.00 69 1010.1
20260503000404 16 283 9.7 19.3 0.00 0.00 0.00 68 1010.1
20260502235904 16 278 9.7 19.3 0.00 0.00 0.00 68 1010.1
20260502234904 16 273 16.1 22.5 0.00 0.00 0.00 69 1010.2
20260502233904 16 270 12.9 24.1 0.00 0.00 0.00 69 1010.3
20260502233403 16 279 9.7 24.1 0.00 0.00 0.00 69 1010.3
20260502232903 16 280 8.0 22.5 0.00 0.00 0.00 68 1010.3
20260502232404 16 258 12.9 20.9 0.00 0.00 0.00 67 1010.5
20260502231904 16 276 6.4 20.9 0.00 0.00 0.00 68 1010.5
20260502230404 16 280 11.3 25.7 0.00 0.00 0.00 67 1010.6
20260502225904 16 286 14.5 24.1 0.00 0.00 0.00 67 1010.6
20260502225404 16 287 11.3 22.5 0.00 0.00 0.00 68 1010.7
20260502224903 16 282 11.3 25.7 0.00 0.00 0.00 67 1010.7
20260502224404 16 282 14.5 27.4 0.00 0.00 0.00 67 1010.7
20260502223904 16 266 8.0 20.9 0.00 0.00 0.00 68 1011.1
20260502223404 16 272 14.5 24.1 0.00 0.00 0.00 67 1011.1
20260502222904 16 286 9.7 22.5 0.00 0.00 0.00 67 1011.1
20260502222404 16 261 14.5 22.5 0.00 0.00 0.00 67 1011.2
20260502221903 16 283 9.7 24.1 0.00 0.00 0.00 67 1011.2
20260502221404 16 267 14.5 25.7 0.00 0.00 0.00 68 1011.2
20260502220904 16 265 14.5 25.7 0.00 0.00 0.00 68 1011.4
20260502220404 16 268 12.9 22.5 0.00 0.00 0.00 68 1011.4
20260502215904 16 278 9.7 19.3 0.00 0.00 0.00 67 1011.4
20260502215404 16 264 8.0 19.3 0.00 0.00 0.00 68 1011.5
20260502214904 16 286 8.0 16.1 0.00 0.00 0.00 69 1011.5
20260502214403 16 289 9.7 19.3 0.00 0.00 0.00 69 1011.5
20260502213904 16 281 11.3 25.7 0.00 0.00 0.00 70 1011.7
20260502213404 16 267 11.3 22.5 0.00 0.00 0.00 71 1011.7
20260502212904 16 279 9.7 20.9 0.00 0.00 0.00 71 1011.7
20260502212403 16 271 11.3 25.7 0.00 0.00 0.00 70 1011.7
20260502211904 16 267 11.3 20.9 0.00 0.00 0.00 70 1011.7
20260502211404 16 271 11.3 19.3 0.00 0.00 0.00 70 1011.7
20260502210904 16 268 14.5 25.7 0.00 0.00 0.00 69 1011.9
20260502205904 16 271 9.7 19.3 0.00 0.00 0.00 68 1011.9
20260502205404 16 290 8.0 19.3 0.00 0.00 0.00 69 1011.9
20260502204903 16 270 8.0 19.3 0.00 0.00 0.00 70 1011.9
20260502203903 16 246 14.5 22.5 0.00 0.00 0.00 70 1012.2
20260502203404 16 262 14.5 22.5 0.00 0.00 0.00 70 1012.2
20260502202903 16 259 11.3 20.9 0.00 0.00 0.00 70 1012.2
20260502202404 16 244 12.9 20.9 0.00 0.00 0.00 70 1012.3
20260502201903 16 249 12.9 22.5 0.00 0.00 0.00 71 1012.3
20260502201404 16 249 11.3 22.5 0.00 0.00 0.00 70 1012.3
20260502200904 16 251 11.3 19.3 0.00 0.00 0.00 70 1012.3
20260502200404 16 242 9.7 19.3 0.00 0.00 0.00 71 1012.3
20260502195904 16 238 11.3 19.3 0.00 0.00 0.00 71 1012.3
20260502195404 16 261 12.9 19.3 0.00 0.00 0.00 71 1012.4
20260502194904 15 236 9.7 19.3 0.00 0.00 0.00 72 1012.4
20260502194404 15 245 12.9 24.1 0.00 0.00 0.00 72 1012.4
20260502193904 15 248 9.7 20.9 0.00 0.00 0.00 73 1012.5
20260502192904 15 260 12.9 19.3 0.00 0.00 0.00 72 1012.5
20260502192404 15 259 8.0 19.3 0.00 0.00 0.00 73 1012.5
20260502191404 15 255 9.7 22.5 0.00 0.00 0.00 73 1012.5
20260502190904 15 253 8.0 19.3 0.00 0.00 0.00 73 1012.6
20260502185903 15 249 11.3 20.9 0.00 0.00 0.00 74 1012.6
20260502185404 15 247 11.3 20.9 0.00 0.00 0.00 74 1012.6
20260502184904 15 239 8.0 19.3 0.00 0.00 0.00 74 1012.6
20260502183904 15 243 9.7 19.3 0.00 0.00 0.00 74 1012.4
20260502183404 15 248 8.0 12.9 0.00 0.00 0.00 74 1012.4
20260502182904 15 243 9.7 14.5 0.00 0.00 0.00 75 1012.4
20260502182404 15 249 9.7 19.3 0.00 0.00 0.00 75 1012.5
20260502181904 15 260 8.0 19.3 0.00 0.00 0.00 76 1012.5
20260502181404 15 249 11.3 19.3 0.00 0.00 0.00 76 1012.5
20260502180904 15 245 9.7 14.5 0.00 0.00 0.00 76 1012.5